GW1213 Weather Reports


time (UTC)temp
C
wind
direction
speed
KPH
gust
KPH
rain 1hr
cm
rain 24hr
cm
rain mn
cm
humidity
%
barometer
mb
20260902223114 25 0 0.0 3.2 0.00 0.00 0.00 82 1017.0
20260902222534 25 0 0.0 4.8 0.00 0.00 0.00 81 1017.2
20260902222038 25 0 0.0 6.4 0.00 0.00 0.00 81 1017.0
20260902221601 25 0 1.6 6.4 0.00 0.00 0.00 81 1017.1
20260902221041 25 78 0.0 4.8 0.00 0.00 0.00 80 1017.0
20260902220538 25 79 0.0 4.8 0.00 0.00 0.00 81 1016.7
20260902215535 25 0 0.0 1.6 0.00 0.00 0.00 83 1016.3
20260902215037 25 0 0.0 1.6 0.00 0.00 0.00 81 1016.5
20260902214557 25 0 0.0 4.8 0.00 0.00 0.00 81 1016.5
20260902214035 25 0 0.0 4.8 0.00 0.00 0.00 79 1016.6
20260902213538 25 0 0.0 0.0 0.00 0.00 0.00 80 1016.3
20260902213107 26 0 0.0 0.0 0.00 0.00 0.00 81 1016.3
20260902212536 25 0 0.0 0.0 0.00 0.00 0.00 79 1016.6
20260902212038 25 0 0.0 1.6 0.00 0.00 0.00 80 1016.6
20260902211600 25 0 0.0 4.8 0.00 0.00 0.00 80 1016.8
20260902211035 25 0 0.0 9.7 0.00 0.00 0.00 80 1016.9
20260902210541 26 55 1.6 9.7 0.00 0.00 0.00 79 1016.8
20260902210100 26 69 0.0 16.1 0.00 0.00 0.00 80 1016.7
20260902205537 26 0 4.8 16.1 0.00 0.00 0.00 79 1017.3
20260902205037 26 41 3.2 16.1 0.00 0.00 0.00 78 1017.2
20260902204635 26 65 6.4 16.1 0.00 0.00 0.00 77 1017.3
20260902204035 26 67 6.4 17.7 0.00 0.00 0.00 77 1017.2
20260902203538 26 66 9.7 17.7 0.00 0.00 0.00 76 1017.1
20260902203104 27 93 8.0 17.7 0.00 0.00 0.00 75 1016.9
20260902202538 27 74 4.8 14.5 0.00 0.00 0.00 76 1017.1
20260902202038 27 37 6.4 19.3 0.00 0.00 0.00 74 1017.4
20260902201601 27 42 8.0 19.3 0.00 0.00 0.00 74 1017.3
20260902201040 27 70 1.6 12.9 0.00 0.00 0.00 75 1017.4
20260902200537 27 63 6.4 14.5 0.00 0.00 0.00 74 1017.1
20260902200059 27 78 4.8 17.7 0.00 0.00 0.00 74 1017.3
20260902195537 27 78 4.8 19.3 0.00 0.00 0.00 74 1017.3
20260902195037 28 51 4.8 19.3 0.00 0.00 0.00 74 1017.5
20260902194557 28 44 6.4 17.7 0.00 0.00 0.00 72 1017.7
20260902194039 28 314 4.8 20.9 0.00 0.00 0.00 71 1017.5
20260902193537 29 70 8.0 33.8 0.00 0.00 0.00 70 1017.3
20260902193105 29 84 9.7 33.8 0.00 0.00 0.00 69 1017.8
20260902192537 31 331 16.1 33.8 0.00 0.00 0.00 65 1017.5
20260902192036 32 86 4.8 16.1 0.00 0.00 0.00 67 1016.9
20260902191603 32 21 6.4 14.5 0.00 0.00 0.00 67 1016.6
20260902191037 32 17 4.8 17.7 0.00 0.00 0.00 67 1016.4
20260902190535 32 95 6.4 19.3 0.00 0.00 0.00 66 1016.2
20260902185534 32 72 4.8 22.5 0.00 0.00 0.00 65 1016.5
20260902185035 32 80 6.4 22.5 0.00 0.00 0.00 64 1016.6
20260902184556 33 336 9.7 17.7 0.00 0.00 0.00 64 1016.9
20260902184038 33 85 6.4 17.7 0.00 0.00 0.00 63 1016.9
20260902183538 33 48 4.8 12.9 0.00 0.00 0.00 62 1016.9
20260902183113 33 41 3.2 9.7 0.00 0.00 0.00 63 1016.8
20260902182538 33 44 3.2 11.3 0.00 0.00 0.00 63 1016.7
20260902182035 33 58 3.2 12.9 0.00 0.00 0.00 62 1016.6
20260902181613 33 57 3.2 12.9 0.00 0.00 0.00 63 1016.5
20260902181037 33 101 1.6 12.9 0.00 0.00 0.00 65 1016.5
20260902180537 33 68 3.2 12.9 0.00 0.00 0.00 63 1016.6
20260902180104 33 22 3.2 9.7 0.00 0.00 0.00 63 1016.7
20260902175539 33 81 1.6 8.0 0.00 0.00 0.00 61 1016.8
20260902175043 33 34 3.2 8.0 0.00 0.00 0.00 63 1016.8
20260902174601 33 30 0.0 9.7 0.00 0.00 0.00 62 1016.9
20260902174034 33 153 1.6 11.3 0.00 0.00 0.00 62 1016.9
20260902173535 33 57 1.6 11.3 0.00 0.00 0.00 63 1016.9
20260902173119 33 355 1.6 8.0 0.00 0.00 0.00 62 1017.0
20260902172538 33 48 3.2 8.0 0.00 0.00 0.00 64 1017.0
20260902172041 33 53 3.2 8.0 0.00 0.00 0.00 63 1016.9
20260902171606 33 137 1.6 6.4 0.00 0.00 0.00 62 1017.0
20260902171039 32 70 3.2 8.0 0.00 0.00 0.00 63 1017.1
20260902170537 32 51 3.2 8.0 0.00 0.00 0.00 62 1017.1
20260902165538 32 51 3.2 12.9 0.00 0.00 0.00 64 1017.2
20260902165036 32 69 1.6 8.0 0.00 0.00 0.00 64 1017.3
20260902164606 32 0 0.0 12.9 0.00 0.00 0.00 63 1017.3
20260902164035 32 52 3.2 12.9 0.00 0.00 0.00 64 1017.2
20260902163535 32 54 3.2 12.9 0.00 0.00 0.00 65 1017.2
20260902163053 32 47 0.0 6.4 0.00 0.00 0.00 64 1017.3
20260902162539 32 64 1.6 8.0 0.00 0.00 0.00 62 1017.2
20260902162038 32 147 4.8 8.0 0.00 0.00 0.00 63 1017.3
20260902161603 32 188 1.6 6.4 0.00 0.00 0.00 61 1017.3
20260902161036 32 70 0.0 4.8 0.00 0.00 0.00 64 1017.2
20260902160537 32 0 0.0 4.8 0.00 0.00 0.00 63 1017.2
20260902160057 32 0 0.0 4.8 0.00 0.00 0.00 64 1017.2
20260902155535 32 0 1.6 11.3 0.00 0.00 0.00 64 1017.2
20260902155038 32 72 3.2 11.3 0.00 0.00 0.00 64 1017.1
20260902154558 32 55 0.0 9.7 0.00 0.00 0.00 64 1017.2
20260902154035 31 59 1.6 11.3 0.00 0.00 0.00 65 1017.2
20260902153537 32 105 3.2 12.9 0.00 0.00 0.00 66 1017.2
20260902153107 32 71 3.2 12.9 0.00 0.00 0.00 66 1017.2
20260902152541 31 0 0.0 6.4 0.00 0.00 0.00 65 1017.2
20260902152039 31 76 1.6 6.4 0.00 0.00 0.00 66 1017.3
20260902151602 31 0 0.0 6.4 0.00 0.00 0.00 67 1017.3
20260902151037 31 52 1.6 6.4 0.00 0.00 0.00 68 1017.2
20260902150538 31 9 0.0 8.0 0.00 0.00 0.00 68 1017.3
20260902150101 31 0 1.6 8.0 0.00 0.00 0.00 68 1017.4
20260902145539 31 123 1.6 8.0 0.00 0.00 0.00 69 1017.4
20260902145038 31 72 1.6 6.4 0.00 0.00 0.00 68 1017.4
20260902144602 31 76 1.6 8.0 0.00 0.00 0.00 69 1017.4
20260902144038 30 43 1.6 8.0 0.00 0.00 0.00 70 1017.4
20260902143540 30 343 0.0 3.2 0.00 0.00 0.00 71 1017.4
20260902143103 30 0 0.0 3.2 0.00 0.00 0.00 72 1017.4
20260902142537 30 0 0.0 3.2 0.00 0.00 0.00 72 1017.4
20260902142038 30 33 0.0 3.2 0.00 0.00 0.00 73 1017.3
20260902141558 30 0 0.0 3.2 0.00 0.00 0.00 72 1017.1
20260902141037 30 0 0.0 3.2 0.00 0.00 0.00 72 1017.2
20260902140535 30 52 0.0 3.2 0.00 0.00 0.00 74 1017.1
20260902140057 30 0 0.0 3.2 0.00 0.00 0.00 74 1017.2
20260902135535 30 0 0.0 4.8 0.00 0.00 0.00 75 1017.3
20260902135035 29 0 0.0 4.8 0.00 0.00 0.00 75 1017.2
20260902134610 29 0 0.0 0.0 0.00 0.00 0.00 76 1017.1
20260902134038 29 0 0.0 0.0 0.00 0.00 0.00 76 1017.1
20260902133538 29 0 0.0 0.0 0.00 0.00 0.00 77 1017.1
20260902133104 28 0 0.0 0.0 0.00 0.00 0.00 78 1017.1
20260902132535 28 0 0.0 0.0 0.00 0.00 0.00 77 1017.1
20260902132038 28 0 0.0 4.8 0.00 0.00 0.00 78 1017.0
20260902131559 28 0 0.0 4.8 0.00 0.00 0.00 79 1017.0
20260902131036 28 55 0.0 4.8 0.00 0.00 0.00 80 1016.9
20260902130537 28 0 0.0 0.0 0.00 0.00 0.00 80 1017.0
20260902130107 28 0 0.0 0.0 0.00 0.00 0.00 80 1016.9
20260902125538 27 0 0.0 0.0 0.00 0.00 0.00 80 1016.9
20260902125037 27 0 0.0 0.0 0.00 0.00 0.00 81 1016.9
20260902124554 27 0 0.0 0.0 0.00 0.00 0.00 81 1017.0
20260902124038 27 0 0.0 0.0 0.00 0.00 0.00 81 1016.8
20260902123536 27 0 0.0 0.0 0.00 0.00 0.00 82 1016.8
20260902123109 26 0 0.0 0.0 0.00 0.00 0.00 83 1017.0
20260902122538 26 0 0.0 0.0 0.00 0.00 0.00 84 1017.0
20260902122035 26 0 0.0 0.0 0.00 0.00 0.00 85 1017.0
20260902121558 26 0 0.0 0.0 0.00 0.00 0.00 86 1017.0
20260902121035 26 0 0.0 0.0 0.00 0.00 0.00 87 1017.2
20260902120535 25 0 0.0 0.0 0.00 0.00 0.00 90 1017.1
20260902120057 25 0 0.0 0.0 0.00 0.00 0.00 91 1017.1
20260902115537 25 0 0.0 0.0 0.00 0.00 0.00 91 1017.1
20260902115035 24 0 0.0 0.0 0.00 0.00 0.00 93 1017.0
20260902114600 23 0 0.0 0.0 0.00 0.00 0.00 93 1017.0
20260902114035 23 0 0.0 0.0 0.00 0.00 0.00 94 1017.0
20260902113535 23 0 0.0 0.0 0.00 0.00 0.00 94 1017.0
20260902113101 23 0 0.0 0.0 0.00 0.00 0.00 94 1017.0
20260902112536 23 0 0.0 0.0 0.00 0.00 0.00 93 1017.0
20260902112036 23 0 0.0 0.0 0.00 0.00 0.00 93 1017.0
20260902111602 23 0 0.0 0.0 0.00 0.00 0.00 93 1017.0
20260902111037 23 0 0.0 0.0 0.00 0.00 0.00 93 1017.0
20260902110538 23 0 0.0 0.0 0.00 0.00 0.00 93 1017.0
20260902110105 23 0 0.0 0.0 0.00 0.00 0.00 93 1016.8
20260902105535 23 0 0.0 0.0 0.00 0.00 0.00 93 1016.9
20260902105035 23 0 0.0 0.0 0.00 0.00 0.00 93 1016.9
20260902104610 23 0 0.0 0.0 0.00 0.00 0.00 93 1016.8
20260902104036 23 0 0.0 0.0 0.00 0.00 0.00 92 1016.8
20260902103537 23 0 0.0 0.0 0.00 0.00 0.00 92 1016.8
20260902103119 23 0 0.0 0.0 0.00 0.00 0.00 92 1016.7
20260902102536 23 0 0.0 0.0 0.00 0.00 0.00 90 1016.7
20260902102036 23 0 0.0 0.0 0.00 0.00 0.00 91 1016.6
20260902101606 23 0 0.0 0.0 0.00 0.00 0.00 91 1016.4
20260902101035 23 0 0.0 0.0 0.00 0.00 0.00 91 1016.4
20260902100536 23 0 0.0 0.0 0.00 0.00 0.00 90 1016.4
20260902100056 24 0 0.0 0.0 0.00 0.00 0.00 90 1016.4
20260902095536 24 0 0.0 0.0 0.00 0.00 0.00 91 1016.3
20260902095038 24 0 0.0 0.0 0.00 0.00 0.00 91 1016.3
20260902094601 24 0 0.0 0.0 0.00 0.00 0.00 92 1016.3
20260902094035 24 0 0.0 0.0 0.00 0.00 0.00 92 1016.3
20260902093538 24 0 0.0 0.0 0.00 0.00 0.00 92 1016.2
20260902093100 24 0 0.0 0.0 0.00 0.00 0.00 92 1016.1
20260902092536 24 0 0.0 0.0 0.00 0.00 0.00 93 1016.1
20260902092035 24 0 0.0 0.0 0.00 0.00 0.00 93 1016.1
20260902091556 24 0 0.0 0.0 0.00 0.00 0.00 93 1016.2
20260902091038 24 0 0.0 0.0 0.00 0.00 0.00 93 1016.1
20260902090538 24 0 0.0 0.0 0.00 0.00 0.00 93 1016.2
20260902090058 24 0 0.0 0.0 0.00 0.00 0.00 93 1016.2
20260902085537 24 0 0.0 0.0 0.00 0.00 0.00 93 1016.2
20260902085035 24 0 0.0 0.0 0.00 0.00 0.00 93 1016.2
20260902084559 24 0 0.0 0.0 0.00 0.00 0.00 93 1016.2
20260902084036 24 0 0.0 0.0 0.00 0.00 0.00 93 1016.1
20260902083539 24 0 0.0 0.0 0.00 0.00 0.00 93 1016.0
20260902083057 24 0 0.0 0.0 0.00 0.00 0.00 92 1016.0
20260902082535 24 0 0.0 0.0 0.00 0.00 0.00 92 1016.0
20260902082035 24 0 0.0 0.0 0.00 0.00 0.00 93 1016.0
20260902081603 24 0 0.0 0.0 0.00 0.00 0.00 92 1016.0
20260902081038 24 0 0.0 0.0 0.00 0.00 0.00 92 1016.0
20260902080538 24 0 0.0 0.0 0.00 0.00 0.00 92 1016.1
20260902075538 24 0 0.0 0.0 0.00 0.00 0.00 93 1016.1
20260902075035 24 0 0.0 0.0 0.00 0.00 0.00 93 1016.1
20260902074600 24 0 0.0 0.0 0.00 0.00 0.00 93 1016.0
20260902074035 24 0 0.0 0.0 0.00 0.00 0.00 93 1016.1
20260902073535 24 0 0.0 0.0 0.00 0.00 0.00 93 1016.1
20260902073108 25 0 0.0 0.0 0.00 0.00 0.00 94 1016.1
20260902072538 25 0 0.0 0.0 0.00 0.00 0.00 93 1016.1
20260902072041 25 0 0.0 0.0 0.00 0.00 0.00 93 1016.1
20260902071557 25 0 0.0 0.0 0.00 0.00 0.00 93 1016.1
20260902071038 25 0 0.0 0.0 0.00 0.00 0.00 93 1016.0
20260902070535 25 0 0.0 0.0 0.00 0.00 0.00 93 1015.9
20260902070103 25 0 0.0 0.0 0.00 0.00 0.00 93 1015.9
20260902065539 25 0 0.0 0.0 0.00 0.00 0.00 93 1016.0
20260902065038 25 0 0.0 0.0 0.00 0.00 0.00 93 1016.0
20260902064605 25 0 0.0 0.0 0.00 0.00 0.00 93 1015.9
20260902064041 25 0 0.0 0.0 0.00 0.00 0.00 93 1015.8
20260902063537 25 0 0.0 0.0 0.00 0.00 0.00 93 1015.7
20260902063109 25 0 0.0 0.0 0.00 0.00 0.00 93 1015.8
20260902062538 25 0 0.0 0.0 0.00 0.00 0.00 92 1015.8
20260902062039 25 0 0.0 0.0 0.00 0.00 0.00 93 1015.8
20260902061620 25 0 0.0 0.0 0.00 0.00 0.00 93 1015.7
20260902061044 25 0 0.0 0.0 0.00 0.00 0.00 93 1015.7
20260902060537 25 0 0.0 0.0 0.00 0.00 0.00 93 1015.7
20260902060109 25 0 0.0 0.0 0.00 0.00 0.00 93 1015.6
20260902055537 25 0 0.0 0.0 0.00 0.00 0.00 93 1015.6
20260902055036 25 0 0.0 0.0 0.00 0.00 0.00 93 1015.6
20260902054559 25 0 0.0 0.0 0.00 0.00 0.00 93 1015.5
20260902054037 25 0 0.0 0.0 0.00 0.00 0.00 93 1015.4
20260902053536 25 0 0.0 0.0 0.00 0.00 0.00 93 1015.5
20260902053102 25 0 0.0 0.0 0.00 0.00 0.00 92 1015.4
20260902052534 25 0 0.0 0.0 0.00 0.00 0.00 93 1015.5
20260902052036 25 0 0.0 0.0 0.00 0.00 0.00 92 1015.5
20260902051615 25 0 0.0 0.0 0.00 0.00 0.00 92 1015.6
20260902051036 25 0 0.0 0.0 0.00 0.00 0.00 92 1015.5
20260902050536 25 0 0.0 0.0 0.00 0.00 0.00 92 1015.5
20260902050107 25 0 0.0 0.0 0.00 0.00 0.00 92 1015.6
20260902045535 25 0 0.0 0.0 0.00 0.00 0.00 92 1015.7
20260902045037 25 0 0.0 0.0 0.00 0.00 0.00 92 1015.7
20260902044626 26 0 0.0 0.0 0.00 0.00 0.00 92 1015.6
20260902044035 26 0 0.0 0.0 0.00 0.00 0.00 92 1015.6
20260902043535 26 0 0.0 0.0 0.00 0.00 0.00 92 1015.7
20260902043056 26 0 0.0 0.0 0.00 0.00 0.00 91 1015.7
20260902042535 26 0 0.0 0.0 0.00 0.00 0.00 92 1015.7
20260902042037 26 0 0.0 0.0 0.00 0.00 0.00 92 1015.7
20260902041604 26 0 0.0 0.0 0.00 0.00 0.00 92 1015.7
20260902041034 26 0 0.0 0.0 0.00 0.00 0.00 92 1015.6
20260902040536 26 0 0.0 0.0 0.00 0.00 0.00 91 1015.5
20260902040104 26 0 0.0 0.0 0.00 0.00 0.00 91 1015.5
20260902035535 26 0 0.0 0.0 0.00 0.00 0.00 91 1015.5
20260902035035 26 0 0.0 0.0 0.00 0.00 0.00 91 1015.4
20260902034601 26 0 0.0 0.0 0.00 0.00 0.00 91 1015.3
20260902034035 26 0 0.0 0.0 0.00 0.00 0.00 91 1015.3
20260902033536 26 0 0.0 0.0 0.00 0.00 0.00 90 1015.3
20260902033104 26 0 0.0 0.0 0.00 0.00 0.00 90 1015.2
20260902032535 26 0 0.0 0.0 0.00 0.00 0.00 90 1015.1
20260902032036 26 0 0.0 0.0 0.00 0.00 0.00 90 1015.1
20260902031619 26 0 0.0 0.0 0.00 0.00 0.00 90 1015.1
20260902031036 26 0 0.0 0.0 0.00 0.00 0.00 90 1014.9
20260902030541 26 0 0.0 0.0 0.00 0.00 0.00 89 1015.0
20260902025537 26 0 0.0 0.0 0.00 0.00 0.00 89 1015.1
20260902025036 26 0 0.0 0.0 0.00 0.00 0.00 89 1015.1
20260902024602 26 0 0.0 0.0 0.00 0.00 0.00 89 1015.1
20260902024035 26 0 0.0 0.0 0.00 0.00 0.00 88 1015.2
20260902023536 26 0 0.0 0.0 0.00 0.00 0.00 88 1015.1
20260902023106 26 0 0.0 0.0 0.00 0.00 0.00 88 1015.0
20260902022535 27 0 0.0 0.0 0.00 0.00 0.00 88 1014.9
20260902022034 27 0 0.0 0.0 0.00 0.00 0.00 88 1014.9
20260902021603 27 0 0.0 0.0 0.00 0.00 0.00 87 1014.8
20260902021035 27 0 0.0 0.0 0.00 0.00 0.00 86 1014.8
20260902020539 27 0 0.0 0.0 0.00 0.00 0.00 86 1014.7
20260902020101 27 0 0.0 0.0 0.00 0.00 0.00 87 1014.8
20260902015537 27 0 0.0 0.0 0.00 0.00 0.00 87 1014.8
20260902015036 27 0 0.0 0.0 0.00 0.00 0.00 86 1014.8
20260902014606 27 0 0.0 0.0 0.00 0.00 0.00 86 1014.6
20260902014039 27 0 0.0 0.0 0.00 0.00 0.00 84 1014.5
20260902013535 27 0 0.0 0.0 0.00 0.00 0.00 84 1014.5
20260902013112 27 0 0.0 0.0 0.00 0.00 0.00 84 1014.4
20260902012535 27 0 0.0 0.0 0.00 0.00 0.00 85 1014.4
20260902012038 27 0 0.0 0.0 0.00 0.00 0.00 84 1014.2
20260902011603 27 0 0.0 0.0 0.00 0.00 0.00 83 1014.2
20260902011039 27 0 0.0 0.0 0.00 0.00 0.00 83 1014.1
20260902010537 27 0 0.0 0.0 0.00 0.00 0.00 83 1014.0
20260902010105 28 0 0.0 0.0 0.00 0.00 0.00 83 1013.8
20260902005536 28 0 0.0 0.0 0.00 0.00 0.00 82 1013.7
20260902005036 28 0 0.0 0.0 0.00 0.00 0.00 82 1013.6
20260902004559 28 0 0.0 0.0 0.00 0.00 0.00 81 1013.6
20260902004036 28 0 0.0 0.0 0.00 0.00 0.00 81 1013.5
20260902003535 28 0 0.0 0.0 0.00 0.00 0.00 81 1013.4
20260902003106 28 0 0.0 0.0 0.00 0.00 0.00 79 1013.3
20260902002535 29 0 0.0 0.0 0.00 0.00 0.00 78 1013.2
20260902002039 29 0 0.0 0.0 0.00 0.00 0.00 77 1013.2
20260902001602 30 0 0.0 0.0 0.00 0.00 0.00 76 1013.2
20260902001038 30 0 0.0 0.0 0.00 0.00 0.00 74 1013.2
20260902000538 30 0 0.0 0.0 0.00 0.00 0.00 72 1013.1
20260902000055 30 0 0.0 0.0 0.00 0.00 0.00 72 1013.2
20260901235538 30 0 0.0 0.0 0.00 0.00 0.00 71 1013.3
20260901235037 31 0 0.0 0.0 0.00 0.00 0.00 71 1013.3
20260901234606 31 0 0.0 0.0 0.00 0.00 0.00 70 1013.2
20260901234035 31 0 0.0 0.0 0.00 0.00 0.00 70 1013.2
20260901233535 32 0 0.0 0.0 0.00 0.00 0.00 64 1013.1
20260901233105 32 0 0.0 0.0 0.00 0.00 0.00 63 1013.2
20260901232536 32 0 0.0 0.0 0.00 0.00 0.00 61 1013.2
20260901232036 32 0 0.0 0.0 0.00 0.00 0.00 59 1013.3
20260901231615 32 0 0.0 0.0 0.00 0.00 0.00 58 1013.3
20260901231035 33 0 0.0 1.6 0.00 0.00 0.00 58 1013.2
20260901230538 33 0 0.0 4.8 0.00 0.00 0.00 57 1013.2
20260901230109 33 0 0.0 4.8 0.00 0.00 0.00 56 1013.4
20260901225537 33 0 0.0 6.4 0.00 0.00 0.00 55 1013.4
20260901225037 33 0 1.6 8.0 0.00 0.00 0.00 55 1013.5
20260901224554 33 216 3.2 8.0 0.00 0.00 0.00 55 1013.5
20260901224036 33 0 0.0 4.8 0.00 0.00 0.00 54 1013.6
20260901223539 33 180 0.0 3.2 0.00 0.00 0.00 54 1013.6